Weather in Karkalay

Russia / Udmurt Republic     56°59′04″N   52°22′39″E
temp.,
°C
wind,
m/s
gust,
m/s
humid.,
%
clouds,
%
prec.,
mm/h
press.,
hPa
HPBL,
m
15 june, tue
tue1501:00+16wnw2295100 0.1 101414
04:00+14wnw11960 0.1 101411
07:00+18wsw119012 0.0 1015135
10:00+24wsw235414 0.2 1015958
13:00+27sw344137 0.0 10142003
16:00+27sw3543100 0.0 10142415
19:00+18sse3595100 1.4 1014104
22:00+17ssw229697 1.4 101430
16 june, wed
wed1601:00+16sw119624 0.1 101413
04:00+16sse119591 0.1 101312
07:00+19se249196 0.4 1013135
10:00+26sse355466 0.4 1011815
13:00+28sse454392 0.0 10101323
16:00+28s354362 0.0 10081450
19:00+26ssw37635 0.0 1006415
22:00+16nnw51397100 4.0 1009594
17 june, thu
thu1701:00+15nw3119747 1.1 1008566
04:00+13nnw3109736 1.1 1012559
07:00+14nnw489124 0.0 1013421
10:00+19n58475 0.0 10141455
13:00+21nnw573613 0.0 10142476
16:00+17nw485275 0.0 10151084
19:00+18nnw49515 0.0 10161499
22:00+11nw29800 0.0 1018219
18 june, fri
fri1801:00+11nnw411819 0.0 1020519
04:00+9nw410930 0.0 1021340
07:00+12nnw59665 0.0 1023525
10:00+17nnw45470 0.0 10241433
13:00+19nnw46385 0.0 10241961
16:00+20nnw473748 0.0 10242060
19:00+18nw265692 0.0 1024554
22:00+14w2570100 0.0 102586
19 june, sat
sat1901:00+12wsw287979 0.0 1025177
04:00+12wsw3118066 0.0 1025246
07:00+16wsw4116559 0.0 1024335
10:00+22w595336 0.0 10211028
13:00+26w6104471 0.0 10192301
16:00+26w61051100 0.0 10172040
19:00+24w51161100 0.0 10171301
22:00+20w413750 0.2 1017487